Weather History for KNIP - February, 2014

Change the Weather History Date:

Saturday, February 15, 2014

  Actual Average Record
Temperature  
Mean Temperature 57 °F -  
Max Temperature 64 °F 66 °F 79 °F (2001)
Min Temperature 50 °F 49 °F 37 °F (2007)
Degree Days  
Heating Degree Days 8    
Growing Degree Days 7 (Base 50)    
Moisture  
Dew Point 38 °F    
Average Humidity 56    
Maximum Humidity 83    
Minimum Humidity 26    
Precipitation  
Precipitation 0.06 in - - ()
Sea Level Pressure  
Sea Level Pressure 29.97 in    
Wind  
Wind Speed 13 mph (West)    
Max Wind Speed 26 mph    
Max Gust Speed 32 mph    
Visibility 10 miles    
Events Rain    
Averages and records for this station are not official NWS values.
T = Trace of Precipitation, MM = Missing Value Source: NWS Daily Summary

Daily Weather History Graph

Daily Weather History Graph

Search for Another Location

Airport or City:

Trip Planner

Search our weather history database for the weather conditions in past years. The results will help you decide how hot, cold, wet, or windy it might be!

Date:

Astronomy

Feb. 15, 2014 Rise Set
Actual Time 7:06 AM EST 6:15 PM EST
Civil Twilight 6:42 AM EST 6:39 PM EST
Nautical Twilight 6:14 AM EST 7:07 PM EST
Astronomical Twilight 5:46 AM EST 7:35 PM EST
Moon 7:06 PM EST (2/15) 7:10 AM EST (2/15)
Length of Visible Light 11h 57m
Length of Day
11h 08m
Full, 100% of the Moon is Illuminated
Feb 15
Full
Feb 22
Last Quarter
Mar 1
New
Mar 8
First Quarter
Mar 16
Full

Hourly Weather History & Observations

Time (EST) Temp. Dew Point Humidity Pressure Visibility Wind Dir Wind Speed Gust Speed Precip Events Conditions
12:53 AM 52.0 °F 43.0 °F 71% 29.89 in 10.0 mi SSW 10.4 mph - N/A   Partly Cloudy
1:53 AM 53.1 °F 45.0 °F 74% 29.86 in 10.0 mi South 11.5 mph - N/A   Scattered Clouds
2:53 AM 53.1 °F 46.0 °F 77% 29.82 in 10.0 mi SSW 16.1 mph - N/A   Partly Cloudy
3:53 AM 53.1 °F 46.9 °F 80% 29.80 in 10.0 mi SSW 15.0 mph - N/A   Mostly Cloudy
4:53 AM 55.0 °F 48.0 °F 77% 29.79 in 10.0 mi SW 15.0 mph - N/A   Mostly Cloudy
4:58 AM 55.0 °F 48.9 °F 80% 29.85 in 10.0 mi NNW 19.6 mph 24.2 mph 0.00 in Rain Light Rain
5:01 AM 55.0 °F 48.9 °F 80% 29.85 in 9.0 mi NW 26.5 mph 32.2 mph 0.00 in Rain Light Rain
5:53 AM 52.0 °F 46.9 °F 83% 29.85 in 10.0 mi WSW 8.1 mph - 0.06 in   Overcast
6:53 AM 52.0 °F 46.9 °F 83% 29.87 in 10.0 mi West 11.5 mph - 0.00 in   Mostly Cloudy
7:53 AM 51.1 °F 46.0 °F 83% 29.91 in 10.0 mi West 9.2 mph - N/A   Scattered Clouds
8:53 AM 53.1 °F 44.1 °F 71% 29.94 in 10.0 mi West 12.7 mph - N/A   Scattered Clouds
9:53 AM 54.0 °F 42.1 °F 64% 29.97 in 10.0 mi West 13.8 mph 27.6 mph N/A   Scattered Clouds
10:53 AM 55.0 °F 37.9 °F 53% 29.99 in 10.0 mi WNW 19.6 mph 24.2 mph N/A   Scattered Clouds
11:53 AM 57.0 °F 37.9 °F 49% 29.99 in 10.0 mi WNW 18.4 mph 27.6 mph N/A   Partly Cloudy
12:53 PM 61.0 °F 34.0 °F 36% 29.99 in 10.0 mi WNW 18.4 mph 26.5 mph N/A   Partly Cloudy
1:53 PM 64.0 °F 32.0 °F 30% 29.99 in 10.0 mi WNW 15.0 mph 21.9 mph N/A   Partly Cloudy
2:53 PM 64.9 °F 28.9 °F 26% 30.00 in 10.0 mi NW 12.7 mph 24.2 mph N/A   Scattered Clouds
3:53 PM 64.9 °F 28.9 °F 26% 30.01 in 10.0 mi NW 12.7 mph - N/A   Partly Cloudy
4:53 PM 64.0 °F 28.9 °F 27% 30.04 in 10.0 mi NW 10.4 mph 20.7 mph N/A   Partly Cloudy
5:53 PM 62.1 °F 30.0 °F 30% 30.06 in 10.0 mi NW 8.1 mph - N/A   Clear
6:53 PM 59.0 °F 30.0 °F 33% 30.09 in 10.0 mi NW 5.8 mph - N/A   Partly Cloudy
7:53 PM 55.9 °F 30.0 °F 37% 30.12 in 10.0 mi NW 5.8 mph - N/A   Clear
8:53 PM 54.0 °F 30.9 °F 41% 30.13 in 10.0 mi West 5.8 mph - N/A   Clear
9:53 PM 52.0 °F 30.9 °F 45% 30.15 in 10.0 mi West 6.9 mph - N/A   Clear
10:53 PM 50.0 °F 34.0 °F 54% 30.14 in 10.0 mi West 5.8 mph - N/A   Clear
11:53 PM 51.1 °F 33.1 °F 50% 30.14 in 10.0 mi NW 10.4 mph - N/A   Clear